Regional Weather Roundup
Issued by NWS

Current Version | Previous Version | Text Only | Print | Product List | Glossary On
Versions: 1 2 3 4 5 6 7 8 9 10 11 12 13 14 15 16 17 18 19 20 21 22 23 24 25 26 27 28 29 30 31 32 33 34 35 36 37 38 39 40 41 42 43 44 45 46 47 48 49 50
000
ASUS43 KIND 301210
RWRIN

WEATHER ROUNDUP FOR INDIANA
NATIONAL WEATHER SERVICE INDIANAPOLIS IN
800 AM EDT FRI SEP 30 2022

NOTE: "FAIR" INDICATES FEW OR NO CLOUDS BELOW 12,000 FEET WITH NO
SIGNIFICANT WEATHER AND/OR OBSTRUCTIONS TO VISIBILITY.

* - STATION DOES NOT REPORT WEATHER SUCH AS PRECIPITATION OR FOG.

+ - STATION NOT QUALITY CONTROLLED BY THE NATIONAL WEATHER SERVICE.
    USE DATA WITH CAUTION...ESPECIALLY DEWPOINT AND RELATIVE
    HUMIDITY OBSERVATIONS.

INZ001>003-010>013-019-020-301300-
NORTHWEST INDIANA

CITY           SKY/WX    TMP DP  RH WIND       PRES   REMARKS
GARY /AIRPORT/ CLEAR     45  43  93 CALM      30.36R
KNOX *+          N/A     34  34 100 CALM      30.35S VSB 1/2
LA PORTE +     CLEAR     37  37 100 CALM      30.36S
6HR MIN TEMP:  37; 6HR MAX TEMP:  41;

MICHIGAN CITY+ FOG       37  37 100 CALM      30.36S VSB 1/2
MONTICELLO +   CLEAR     42  40  95 CALM      30.33R FOG
6HR MIN TEMP:  41; 6HR MAX TEMP:  47;

RENSSELAER +   CLEAR     39  37  93 NE3       30.35S FOG
VALPARAISO     CLEAR     41  39  93 NE3       30.35S FOG
6HR MIN TEMP:  40; 6HR MAX TEMP:  45;


$$

LMZ046-743>745-301300-
SOUTHERN LAKE MICHIGAN

STATION/POSITION TIME  TEMP WIND        PRES
                       AIR  DIR/SP/G
                 (UTC) (F)  (DEG/KT/KT) (MB)
MICHIGAN CITY    1140   48              1027.8R
5NW MICH CITY    1150   53  180/ 12/ 14   N/A

$$

INZ004-005-014>016-021>024-301300-
NORTH CENTRAL INDIANA

CITY           SKY/WX    TMP DP  RH WIND       PRES   REMARKS
ELKHART        CLEAR     40  40 100 CALM      30.37R FOG
GOSHEN         CLEAR     39  39 100 CALM      30.35S FOG
6HR MIN TEMP:  37; 6HR MAX TEMP:  43; 6HR PCP: TRACE;

LOGANSPORT +   CLEAR     41  39  93 CALM      30.34S FOG
PERU/GRISSOM   CLEAR     39  37  93 NE7       30.32R FOG
6HR MIN TEMP:  38; 6HR MAX TEMP:  47;

ROCHESTER +    CLEAR     37  37 100 CALM      30.34S FOG
SOUTH BEND     CLEAR     40  37  89 CALM      30.36S
6HR MIN TEMP:  40; 6HR MAX TEMP:  45;

WARSAW +       CLEAR     39  38  97 CALM      30.35R FOG

$$

INZ006>009-017-018-025>027-301300-
NORTHEAST INDIANA

CITY           SKY/WX    TMP DP  RH WIND       PRES   REMARKS
AUBURN +       CLEAR     39  39 100 CALM      30.36S FOG
FORT WAYNE     PTCLDY    39  37  92 N6        30.35R FOG
6HR MIN TEMP:  37; 6HR MAX TEMP:  42;

HUNTINGTON +   CLEAR     39  39 100 N3        30.34S FOG
6HR MIN TEMP:  38; 6HR MAX TEMP:  44;

KENDALLVILLE +   N/A     37  37 100 CALM      30.36S FOG

$$

INZ028-029-035-036-043>045-051>053-301300-
WEST CENTRAL INDIANA

CITY           SKY/WX    TMP DP  RH WIND       PRES   REMARKS
CRAWFORDSVL +  CLEAR     37  34  90 NE5       30.31S
6HR MIN TEMP:  36; 6HR MAX TEMP:  46;

LAFAYETTE      CLEAR     43  40  89 N3        30.33R
6HR MIN TEMP:  41; 6HR MAX TEMP:  49;

TERRE HAUTE    CLEAR     40  39  97 N6        30.29S
6HR MIN TEMP:  38; 6HR MAX TEMP:  48;


$$

INZ030>032-037>040-046>048-054>057-064-065-301300-
CENTRAL INDIANA

CITY           SKY/WX    TMP DP  RH WIND       PRES   REMARKS
ANDERSON       CLEAR     40  37  91 CALM      30.32R
COLUMBUS       CLEAR     37  36  93 N6        30.28R
FISHERS *+     CLEAR     42  42 100 CALM      30.31S
FRANKFORT +    CLEAR     41  41 100 NE6       30.31R
GREENWOOD *+   CLEAR     45  43  95 NE5       30.30R
6HR MIN TEMP:  44; 6HR MAX TEMP:  50;

INDIANAPOLIS   PTCLDY    45  42  89 NE7       30.29S
6HR MIN TEMP:  44; 6HR MAX TEMP:  52;

-EAGLE CREEK   CLEAR     46  42  86 NE6       30.29S
6HR MIN TEMP:  45; 6HR MAX TEMP:  50;

KOKOMO +       LGT RAIN  39 N/A N/A N6        30.33S VSB 3/4
                                      6HR PCP: TRACE;

MT COMFORT *+    N/A     34  34 100 N3        30.30S VSB 1/2
SHELBYVILLE    CLEAR     45  41  86 NE6       30.28S
6HR MIN TEMP:  42; 6HR MAX TEMP:  46;

ZIONSVILLE +   CLEAR     37  37 100 N3        30.31S FOG
6HR MIN TEMP:  36; 6HR MAX TEMP:  46;


$$

INZ033-034-041-042-049-050-058-059-301300-
EAST CENTRAL INDIANA

CITY           SKY/WX    TMP DP  RH WIND       PRES   REMARKS
MUNCIE         FOG       37  33  85 CALM      30.31S VSB 1/4
6HR MIN TEMP:  35; 6HR MAX TEMP:  43;


$$

INZ060-061-067>069-081>083-085>088-301300-
SOUTHWEST INDIANA

CITY           SKY/WX    TMP DP  RH WIND       PRES   REMARKS
EVANSVILLE     CLEAR     46  44  93 N6        30.23F
6HR MIN TEMP:  44; 6HR MAX TEMP:  52;

HUNTINGBURG *+ CLEAR     44  44 100 NE7       30.24S
6HR MIN TEMP:  43; 6HR MAX TEMP:  47;

WASHINGTON +   CLEAR     41  41  99 N3        30.26S
6HR MIN TEMP:  41; 6HR MAX TEMP:  46;


$$

INZ062-063-066-070>080-084-089>092-301300-
SOUTH CENTRAL AND SOUTHEAST INDIANA

CITY           SKY/WX    TMP DP  RH WIND       PRES   REMARKS
BLOOMINGTON    CLEAR     45  42  89 NE3       30.27S
6HR MIN TEMP:  44; 6HR MAX TEMP:  52;

MADISON *+     CLEAR     43  43 100 NE3       30.27S

$$




USA.gov is the U.S. government's official web portal to all federal, state and local government web resources and services.